Hourly Weather Klad'kivka

Today, 25 July, Sunday

Time Temperature Precipitation Wind Pressure Humidity
00:00 +18°C° 0 mm 0 mps 752 mmHg 77%
01:00 +18°C° 0 mm 0 mps 753 mmHg 77%
02:00 +18°C° 0 mm 0 mps 753 mmHg 78%
03:00 +18°C° 0 mm 0 mps 753 mmHg 77%
04:00 +18°C° 0 mm 0 mps 753 mmHg 77%
05:00 +18°C° 0 mm 0 mps 753 mmHg 76%
06:00 +19°C° 0.1 mm 0 mps 753 mmHg 74%
07:00 +20°C° 0.1 mm 0 mps 753 mmHg 71%
08:00 +21°C° 0 mm 0 mps 754 mmHg 70%
09:00 +24°C° 0 mm 1 mps 754 mmHg 65%
10:00 +25°C° 0 mm 1 mps 754 mmHg 61%
11:00 +26°C° 0 mm 1 mps 754 mmHg 57%
12:00 +27°C° 0 mm 1 mps 754 mmHg 55%
13:00 +27°C° 0 mm 1 mps 754 mmHg 53%
14:00 +27°C° 0 mm 2 mps 754 mmHg 51%
15:00 +26°C° 0.2 mm 2 mps 754 mmHg 56%
16:00 +25°C° 0.2 mm 2 mps 754 mmHg 61%
17:00 +24°C° 0.2 mm 3 mps 754 mmHg 67%
18:00 +23°C° 0.1 mm 2 mps 754 mmHg 70%
19:00 +21°C° 0.1 mm 2 mps 754 mmHg 74%
20:00 +20°C° 0.1 mm 2 mps 755 mmHg 77%
21:00 +19°C° 0 mm 2 mps 755 mmHg 79%
22:00 +19°C° 0 mm 2 mps 755 mmHg 81%
23:00 +19°C° 0 mm 2 mps 755 mmHg 83%

Tomorrow, 26 July, Monday

Time Temperature Precipitation Wind Pressure Humidity
00:00 +19°C° 0 mm 2 mps 755 mmHg 83%
01:00 +19°C° 0 mm 2 mps 755 mmHg 82%
02:00 +19°C° 0 mm 2 mps 755 mmHg 82%
03:00 +18°C° 0 mm 2 mps 755 mmHg 83%
04:00 +18°C° 0 mm 2 mps 755 mmHg 84%
05:00 +19°C° 0 mm 1 mps 756 mmHg 84%
06:00 +20°C° 0 mm 2 mps 756 mmHg 78%
07:00 +21°C° 0 mm 2 mps 756 mmHg 71%
08:00 +24°C° 0 mm 3 mps 756 mmHg 64%
09:00 +26°C° 0 mm 3 mps 756 mmHg 59%
10:00 +27°C° 0 mm 3 mps 756 mmHg 54%
11:00 +28°C° 0 mm 4 mps 756 mmHg 49%
12:00 +29°C° 0 mm 3 mps 756 mmHg 46%
13:00 +29°C° 0 mm 3 mps 755 mmHg 44%
14:00 +30°C° 0 mm 3 mps 755 mmHg 42%
15:00 +29°C° 0.2 mm 3 mps 755 mmHg 49%
16:00 +27°C° 0.2 mm 3 mps 755 mmHg 57%
17:00 +25°C° 0.2 mm 3 mps 755 mmHg 64%
18:00 +24°C° 0.1 mm 2 mps 755 mmHg 67%
19:00 +23°C° 0.1 mm 2 mps 755 mmHg 69%
20:00 +21°C° 0.1 mm 2 mps 755 mmHg 72%
21:00 +20°C° 0 mm 2 mps 755 mmHg 73%
22:00 +20°C° 0 mm 3 mps 755 mmHg 74%
23:00 +20°C° 0 mm 3 mps 755 mmHg 75%

Day after tomorrow, 27 July, Tuesday

Time Temperature Precipitation Wind Pressure Humidity
00:00 +20°C° 0 mm 3 mps 755 mmHg 72%
01:00 +20°C° 0 mm 3 mps 755 mmHg 69%
02:00 +20°C° 0 mm 3 mps 755 mmHg 67%
03:00 +19°C° 0 mm 3 mps 755 mmHg 66%
04:00 +19°C° 0 mm 3 mps 755 mmHg 65%
05:00 +19°C° 0 mm 3 mps 755 mmHg 64%
06:00 +21°C° 0 mm 4 mps 755 mmHg 60%
07:00 +23°C° 0 mm 4 mps 755 mmHg 55%
08:00 +26°C° 0 mm 5 mps 755 mmHg 51%
09:00 +27°C° 0 mm 5 mps 755 mmHg 47%
10:00 +29°C° 0 mm 5 mps 755 mmHg 43%
11:00 +32°C° 0 mm 5 mps 755 mmHg 39%
12:00 +32°C° 0 mm 5 mps 754 mmHg 38%
13:00 +32°C° 0 mm 5 mps 754 mmHg 36%
14:00 +33°C° 0 mm 5 mps 754 mmHg 35%
15:00 +32°C° 0 mm 4 mps 754 mmHg 37%
16:00 +32°C° 0 mm 4 mps 753 mmHg 40%
17:00 +30°C° 0 mm 3 mps 753 mmHg 42%
18:00 +29°C° 0 mm 3 mps 753 mmHg 45%
19:00 +27°C° 0 mm 3 mps 752 mmHg 48%
20:00 +26°C° 0 mm 3 mps 752 mmHg 52%
21:00 +24°C° 0.4 mm 3 mps 752 mmHg 60%
22:00 +22°C° 0.4 mm 3 mps 752 mmHg 68%
23:00 +21°C° 0.4 mm 3 mps 752 mmHg 76%

28 July, Wednesday

Time Temperature Precipitation Wind Pressure Humidity
00:00 +20°C° 0.3 mm 3 mps 752 mmHg 78%
01:00 +20°C° 0.3 mm 2 mps 752 mmHg 81%
02:00 +20°C° 0.3 mm 2 mps 751 mmHg 83%
03:00 +20°C° 0.1 mm 2 mps 751 mmHg 85%
04:00 +20°C° 0.1 mm 2 mps 751 mmHg 87%
05:00 +20°C° 0.1 mm 2 mps 750 mmHg 88%
06:00 +20°C° 0.5 mm 3 mps 750 mmHg 86%
07:00 +21°C° 0.5 mm 3 mps 750 mmHg 85%
08:00 +22°C° 0.5 mm 3 mps 750 mmHg 83%
09:00 +25°C° 0.2 mm 3 mps 750 mmHg 75%
10:00 +27°C° 0.2 mm 4 mps 750 mmHg 66%
11:00 +29°C° 0.2 mm 4 mps 750 mmHg 58%
12:00 +30°C° 0.9 mm 4 mps 749 mmHg 58%
13:00 +30°C° 0.9 mm 4 mps 749 mmHg 58%
14:00 +32°C° 0.9 mm 4 mps 749 mmHg 57%
15:00 +32°C° 0.3 mm 4 mps 749 mmHg 55%
16:00 +31°C° 0.3 mm 3 mps 749 mmHg 53%
17:00 +31°C° 0.3 mm 3 mps 748 mmHg 51%
18:00 +29°C° 0 mm 3 mps 748 mmHg 54%
19:00 +28°C° 0 mm 3 mps 748 mmHg 58%
20:00 +26°C° 0 mm 2 mps 748 mmHg 61%
21:00 +26°C° 0 mm 2 mps 748 mmHg 62%
22:00 +25°C° 0 mm 2 mps 748 mmHg 63%
23:00 +25°C° 0 mm 2 mps 748 mmHg 63%

29 July, Thursday

Time Temperature Precipitation Wind Pressure Humidity
00:00 +24°C° 0 mm 2 mps 749 mmHg 66%
01:00 +24°C° 0 mm 2 mps 749 mmHg 68%
02:00 +23°C° 0 mm 2 mps 749 mmHg 70%
03:00 +23°C° 0 mm 2 mps 749 mmHg 73%
04:00 +21°C° 0 mm 2 mps 749 mmHg 75%
05:00 +20°C° 0 mm 2 mps 749 mmHg 78%
06:00 +23°C° 0 mm 2 mps 749 mmHg 72%
07:00 +25°C° 0 mm 2 mps 749 mmHg 66%
08:00 +27°C° 0 mm 2 mps 749 mmHg 59%
09:00 +28°C° 0 mm 2 mps 749 mmHg 54%
10:00 +29°C° 0 mm 2 mps 749 mmHg 49%
11:00 +30°C° 0 mm 2 mps 749 mmHg 44%
12:00 +31°C° 0 mm 2 mps 749 mmHg 42%
13:00 +32°C° 0 mm 2 mps 749 mmHg 41%
14:00 +32°C° 0 mm 2 mps 749 mmHg 39%
15:00 +32°C° 0 mm 2 mps 749 mmHg 40%
16:00 +32°C° 0 mm 2 mps 749 mmHg 41%
17:00 +32°C° 0 mm 2 mps 748 mmHg 42%
18:00 +30°C° 0 mm 2 mps 748 mmHg 48%
19:00 +28°C° 0 mm 2 mps 748 mmHg 54%
20:00 +26°C° 0 mm 1 mps 748 mmHg 59%
21:00 +25°C° 0 mm 1 mps 748 mmHg 61%
22:00 +25°C° 0 mm 1 mps 748 mmHg 63%
23:00 +24°C° 0 mm 1 mps 748 mmHg 65%

30 July, Friday

Time Temperature Precipitation Wind Pressure Humidity
00:00 +24°C° 0 mm 1 mps 748 mmHg 67%
01:00 +23°C° 0 mm 1 mps 749 mmHg 70%
02:00 +23°C° 0 mm 1 mps 749 mmHg 72%
03:00 +23°C° 0.1 mm 1 mps 749 mmHg 74%
04:00 +22°C° 0.1 mm 1 mps 749 mmHg 76%
05:00 +22°C° 0.1 mm 1 mps 749 mmHg 78%
06:00 +23°C° 0 mm 1 mps 749 mmHg 76%
07:00 +24°C° 0 mm 1 mps 749 mmHg 74%
08:00 +25°C° 0 mm 1 mps 749 mmHg 71%
09:00 +25°C° 0 mm 1 mps 749 mmHg 69%
10:00 +26°C° 0 mm 1 mps 749 mmHg 67%
11:00 +27°C° 0 mm 1 mps 749 mmHg 65%
12:00 +28°C° 0 mm 1 mps 749 mmHg 61%
13:00 +29°C° 0 mm 1 mps 748 mmHg 56%
14:00 +30°C° 0 mm 2 mps 748 mmHg 52%
15:00 +30°C° 0.1 mm 2 mps 748 mmHg 54%
16:00 +30°C° 0.1 mm 2 mps 748 mmHg 57%
17:00 +29°C° 0.1 mm 2 mps 747 mmHg 60%
18:00 +27°C° 0.7 mm 2 mps 747 mmHg 69%
19:00 +25°C° 0.7 mm 3 mps 747 mmHg 78%
20:00 +22°C° 0.7 mm 3 mps 747 mmHg 87%
21:00 +22°C° 0.5 mm 3 mps 747 mmHg 88%
22:00 +21°C° 0.5 mm 3 mps 747 mmHg 90%
23:00 +21°C° 0.5 mm 2 mps 747 mmHg 91%
Show more